Погода в Сент-Питер-Порте

Великобритания     49°27′23″N   2°32′07″W
темп.,
°C
ветер,
м/с
пор.,
м/с
влажн.,
%
обл.,
%
осадки,
мм/ч
давл.,
гПа
погр.,
м
4 августа, ср
ср401:00+16вюв4576100 0.0 1013223
04:00+16вюв5577100 0.0 1012398
07:00+16всв5580100 0.1 1013431
10:00+16всв5583100 0.3 1013436
13:00+16всв44815 0.3 1013382
16:00+16ссз33775 0.0 1014246
19:00+17зсз3474100 0.0 1013383
22:00+16з3383100 0.0 1013138
5 августа, чт
чт501:00+16юз4486100 0.0 1012278
04:00+16ююз67866 0.0 1010502
07:00+16ююз8108441 0.0 1009586
10:00+16ю91188100 0.5 1007725
13:00+17ю10158718 0.8 1004545
16:00+17юз81286100 2.1 1002368
19:00+17юз12159172 2.1 1001570
22:00+17зюз12159197 0.1 1002619
6 августа, пт
пт601:00+16зюз13179193 0.3 1002700
04:00+16зюз13178915 0.3 1002763
07:00+16зюз1316888 0.5 1003893
10:00+16зюз1214875 0.1 1005868
13:00+16зюз11138526 0.3 1006872
16:00+16зюз1013855 0.0 1005722
19:00+17зюз914825 0.0 1004558
22:00+17юз812825 0.0 1004519
7 августа, сб
сб701:00+16ююз10138483 0.5 1003725
04:00+16ююз91285100 0.6 1001697
07:00+16юз1213885 3.5 1000698
10:00+16юз1113870 0.2 1000811
13:00+16зюз911855 0.4 1002710
16:00+16зюз1113875 0.1 1005789
19:00+16з1214855 0.1 1006838
22:00+16з11138511 0.1 1009836
8 августа, вс
вс801:00+16зюз1012870 0.4 1011833
04:00+16зюз10128812 0.1 1011845
07:00+16зюз9118472 0.5 1012829
10:00+16зюз9118398 0.1 1013890
13:00+16юз101383100 0.3 1013877
16:00+17зюз131785100 0.1 1013699
19:00+17зюз12168919 0.1 1014721
22:00+17зюз12159198 0.2 1015665